Time,TemperatureF,DewpointF,PressureIn,WindDirection,WindDirectionDegrees,WindSpeedMPH,WindSpeedGustMPH,Humidity,HourlyPrecipIn,Conditions,Clouds,dailyrainin,SoftwareType,DateUTC
2013-06-02 00:01:00,61.4,59.4,29.70,SW,227,5.0,7.0,93,0.12,,---,0.00,VWS V14.01,2013-06-02 04:01:00,
2013-06-02 00:16:00,61.2,58.9,29.70,SW,220,6.0,8.0,92,0.08,,---,0.00,VWS V14.01,2013-06-02 04:16:00,
2013-06-02 00:31:00,60.9,58.3,29.71,SW,223,4.0,7.0,91,0.01,,---,0.00,VWS V14.01,2013-06-02 04:31:00,
2013-06-02 00:46:00,60.5,57.9,29.71,SSW,209,2.0,8.0,91,0.01,,---,0.00,VWS V14.01,2013-06-02 04:46:00,
2013-06-02 01:01:00,60.4,58.1,29.71,SW,218,4.0,8.0,92,0.00,,---,0.00,VWS V14.01,2013-06-02 05:01:00,
2013-06-02 01:16:00,60.5,58.2,29.71,WSW,238,5.0,11.0,92,0.00,,---,0.00,VWS V14.01,2013-06-02 05:16:00,
2013-06-02 01:31:00,60.6,58.6,29.71,WSW,251,5.0,12.0,93,0.00,,---,0.00,VWS V14.01,2013-06-02 05:31:00,
2013-06-02 01:46:00,60.6,58.6,29.71,SW,228,4.0,13.0,93,0.00,,---,0.00,VWS V14.01,2013-06-02 05:46:00,
2013-06-02 02:01:00,60.8,59.1,29.71,SW,215,4.0,10.0,94,0.00,,---,0.00,VWS V14.01,2013-06-02 06:01:00,
2013-06-02 02:16:00,60.9,59.2,29.71,WSW,245,5.0,11.0,94,0.00,,---,0.00,VWS V14.01,2013-06-02 06:16:00,
2013-06-02 02:31:00,61.0,59.3,29.71,SW,224,3.0,10.0,94,0.00,,---,0.00,VWS V14.01,2013-06-02 06:31:00,
2013-06-02 02:46:00,61.0,59.3,29.71,SW,221,8.0,11.0,94,0.00,,---,0.00,VWS V14.01,2013-06-02 06:46:00,
2013-06-02 03:01:00,61.0,59.3,29.71,SW,219,2.0,11.0,94,0.00,,---,0.00,VWS V14.01,2013-06-02 07:01:00,
2013-06-02 03:16:00,60.8,58.8,29.71,South,190,3.0,9.0,93,0.00,,---,0.00,VWS V14.01,2013-06-02 07:16:00,
2013-06-02 03:31:00,60.4,58.7,29.71,SW,223,5.0,9.0,94,0.00,,---,0.00,VWS V14.01,2013-06-02 07:31:00,
2013-06-02 03:46:00,60.3,58.6,29.71,SSW,211,5.0,8.0,94,0.00,,---,0.00,VWS V14.01,2013-06-02 07:46:00,
2013-06-02 04:01:00,60.3,58.6,29.72,SW,215,3.0,9.0,94,0.00,,---,0.00,VWS V14.01,2013-06-02 08:01:00,
2013-06-02 04:16:00,60.1,58.1,29.72,SW,232,5.0,8.0,93,0.00,,---,0.00,VWS V14.01,2013-06-02 08:16:00,
2013-06-02 04:31:00,60.0,58.0,29.72,SW,233,3.0,10.0,93,0.00,,---,0.00,VWS V14.01,2013-06-02 08:31:00,
2013-06-02 04:46:00,59.8,58.1,29.73,WSW,240,2.0,8.0,94,0.00,,---,0.00,VWS V14.01,2013-06-02 08:46:00,
2013-06-02 05:01:00,59.5,57.8,29.73,SW,224,3.0,7.0,94,0.00,,---,0.00,VWS V14.01,2013-06-02 09:01:00,
2013-06-02 05:16:00,59.5,57.8,29.74,WSW,244,4.0,7.0,94,0.00,,---,0.00,VWS V14.01,2013-06-02 09:16:00,
2013-06-02 05:31:00,59.5,57.8,29.74,SW,215,4.0,7.0,94,0.00,,---,0.00,VWS V14.01,2013-06-02 09:31:00,
2013-06-02 05:46:00,59.5,57.8,29.75,WSW,238,4.0,7.0,94,0.00,,---,0.00,VWS V14.01,2013-06-02 09:46:00,
2013-06-02 06:01:00,59.4,57.7,29.75,WSW,239,2.0,10.0,94,0.00,,---,0.00,VWS V14.01,2013-06-02 10:01:00,
2013-06-02 06:16:00,59.3,57.6,29.76,WSW,244,5.0,9.0,94,0.00,,---,0.00,VWS V14.01,2013-06-02 10:16:00,
2013-06-02 06:31:00,59.3,57.6,29.77,SW,231,3.0,7.0,94,0.00,,---,0.00,VWS V14.01,2013-06-02 10:31:00,
2013-06-02 06:46:00,59.4,57.7,29.78,WSW,253,5.0,8.0,94,0.00,,---,0.00,VWS V14.01,2013-06-02 10:46:00,
2013-06-02 07:01:00,59.4,57.7,29.79,SW,235,4.0,8.0,94,0.00,,---,0.00,VWS V14.01,2013-06-02 11:01:00,
2013-06-02 07:16:00,59.7,58.0,29.80,West,265,5.0,11.0,94,0.00,,---,0.00,VWS V14.01,2013-06-02 11:16:00,
2013-06-02 07:31:00,60.0,58.0,29.79,WSW,250,6.0,12.0,93,0.00,,---,0.00,VWS V14.01,2013-06-02 11:31:00,
2013-06-02 07:46:00,60.2,58.2,29.80,West,259,10.0,10.0,93,0.00,,---,0.00,VWS V14.01,2013-06-02 11:46:00,
2013-06-02 08:01:00,60.4,58.4,29.80,WNW,302,2.0,10.0,93,0.00,,---,0.00,VWS V14.01,2013-06-02 12:01:00,
2013-06-02 08:16:00,60.6,58.3,29.81,West,273,7.0,10.0,92,0.00,,---,0.00,VWS V14.01,2013-06-02 12:16:00,
2013-06-02 08:31:00,58.4,55.8,29.82,NW,312,2.0,15.0,91,0.00,,---,0.00,VWS V14.01,2013-06-02 12:31:00,
2013-06-02 08:46:00,56.5,53.9,29.83,West,262,5.0,7.0,91,0.00,,---,0.00,VWS V14.01,2013-06-02 12:46:00,
2013-06-02 09:01:00,54.5,51.9,29.84,West,263,3.0,10.0,91,0.00,,---,0.00,VWS V14.01,2013-06-02 13:01:00,
2013-06-02 09:16:00,52.5,50.2,29.85,West,262,7.0,9.0,92,0.00,,---,0.00,VWS V14.01,2013-06-02 13:16:00,
2013-06-02 09:31:00,52.0,50.0,29.86,WNW,293,2.0,8.0,93,0.00,,---,0.00,VWS V14.01,2013-06-02 13:31:00,
2013-06-02 09:46:00,51.4,49.5,29.86,West,265,2.0,12.0,93,0.00,,---,0.00,VWS V14.01,2013-06-02 13:46:00,
2013-06-02 10:01:00,51.8,49.5,29.87,WNW,296,3.0,9.0,92,0.00,,---,0.00,VWS V14.01,2013-06-02 14:01:00,
2013-06-02 10:16:00,51.8,49.0,29.86,WSW,253,6.0,9.0,90,0.00,,---,0.00,VWS V14.01,2013-06-02 14:16:00,
2013-06-02 10:31:00,51.5,48.4,29.87,NW,309,8.0,8.0,89,0.01,,---,0.01,VWS V14.01,2013-06-02 14:31:00,
2013-06-02 10:46:00,51.7,48.6,29.88,WNW,299,2.0,9.0,89,0.01,,---,0.01,VWS V14.01,2013-06-02 14:46:00,
2013-06-02 11:01:00,52.1,48.7,29.89,NW,325,3.0,7.0,88,0.01,,---,0.01,VWS V14.01,2013-06-02 15:01:00,
2013-06-02 11:16:00,54.0,50.2,29.89,NW,312,3.0,8.0,87,0.01,,---,0.01,VWS V14.01,2013-06-02 15:16:00,
2013-06-02 11:31:00,53.4,49.0,29.90,WNW,292,6.0,11.0,85,0.01,,---,0.01,VWS V14.01,2013-06-02 15:31:00,
2013-06-02 11:46:00,52.9,48.8,29.91,NW,305,11.0,16.0,86,0.00,,---,0.01,VWS V14.01,2013-06-02 15:46:00,
2013-06-02 12:01:00,53.6,49.5,29.91,West,277,2.0,11.0,86,0.00,,---,0.01,VWS V14.01,2013-06-02 16:01:00,
2013-06-02 12:16:00,52.7,47.7,29.92,West,265,3.0,12.0,83,0.00,,---,0.01,VWS V14.01,2013-06-02 16:16:00,
2013-06-02 12:31:00,52.9,47.9,29.93,West,279,5.0,10.0,83,0.00,,---,0.01,VWS V14.01,2013-06-02 16:31:00,
2013-06-02 12:46:00,53.3,47.6,29.93,NW,319,6.0,10.0,81,0.00,,---,0.01,VWS V14.01,2013-06-02 16:46:00,
2013-06-02 13:01:00,54.6,48.9,29.93,NW,323,4.0,12.0,81,0.00,,---,0.01,VWS V14.01,2013-06-02 17:01:00,
2013-06-02 13:16:00,54.0,48.3,29.94,West,269,4.0,11.0,81,0.00,,---,0.01,VWS V14.01,2013-06-02 17:16:00,
2013-06-02 13:31:00,54.0,48.3,29.95,WNW,285,5.0,10.0,81,0.00,,---,0.01,VWS V14.01,2013-06-02 17:31:00,
2013-06-02 13:46:00,53.7,48.0,29.95,WNW,286,3.0,10.0,81,0.00,,---,0.01,VWS V14.01,2013-06-02 17:46:00,
2013-06-02 14:01:00,54.7,48.3,29.95,NNW,336,2.0,10.0,79,0.00,,---,0.01,VWS V14.01,2013-06-02 18:01:00,
2013-06-02 14:16:00,54.3,47.9,29.95,West,267,6.0,12.0,79,0.00,,---,0.01,VWS V14.01,2013-06-02 18:16:00,
2013-06-02 14:31:00,54.6,47.9,29.95,NW,324,3.0,13.0,78,0.00,,---,0.01,VWS V14.01,2013-06-02 18:31:00,
2013-06-02 14:46:00,55.2,48.8,29.96,WNW,283,4.0,11.0,79,0.00,,---,0.01,VWS V14.01,2013-06-02 18:46:00,
2013-06-02 15:01:00,54.7,47.6,29.97,NW,306,2.0,9.0,77,0.00,,---,0.01,VWS V14.01,2013-06-02 19:01:00,
2013-06-02 15:16:00,55.0,48.3,29.98,NNE,19,3.0,11.0,78,0.00,,---,0.01,VWS V14.01,2013-06-02 19:16:00,
2013-06-02 15:31:00,54.7,46.9,29.98,NNW,336,9.0,10.0,75,0.00,,---,0.01,VWS V14.01,2013-06-02 19:31:00,
2013-06-02 15:46:00,54.3,46.6,29.98,NW,325,5.0,10.0,75,0.00,,---,0.01,VWS V14.01,2013-06-02 19:46:00,
2013-06-02 16:01:00,54.8,46.7,29.99,WNW,286,5.0,10.0,74,0.00,,---,0.01,VWS V14.01,2013-06-02 20:01:00,
2013-06-02 16:16:00,54.4,45.9,29.99,North,349,6.0,11.0,73,0.00,,---,0.01,VWS V14.01,2013-06-02 20:16:00,
2013-06-02 16:31:00,54.7,46.6,29.99,WNW,290,4.0,9.0,74,0.00,,---,0.01,VWS V14.01,2013-06-02 20:31:00,
2013-06-02 16:46:00,55.0,46.9,29.99,NW,323,4.0,8.0,74,0.00,,---,0.01,VWS V14.01,2013-06-02 20:46:00,
2013-06-02 17:01:00,53.8,46.1,29.99,West,268,5.0,11.0,75,0.00,,---,0.01,VWS V14.01,2013-06-02 21:01:00,
2013-06-02 17:16:00,53.7,46.0,29.99,WNW,288,9.0,11.0,75,0.00,,---,0.01,VWS V14.01,2013-06-02 21:16:00,
2013-06-02 17:31:00,53.1,45.4,29.99,West,277,5.0,12.0,75,0.00,,---,0.01,VWS V14.01,2013-06-02 21:31:00,
2013-06-02 17:46:00,52.9,45.5,29.99,NNW,332,3.0,11.0,76,0.00,,---,0.01,VWS V14.01,2013-06-02 21:46:00,
2013-06-02 18:01:00,53.2,45.8,29.99,NNW,330,4.0,7.0,76,0.00,,---,0.01,VWS V14.01,2013-06-02 22:01:00,
2013-06-02 18:16:00,53.2,45.8,29.99,WNW,302,3.0,10.0,76,0.00,,---,0.01,VWS V14.01,2013-06-02 22:16:00,
2013-06-02 18:31:00,52.7,45.4,29.99,WNW,302,4.0,10.0,76,0.00,,---,0.01,VWS V14.01,2013-06-02 22:31:00,
2013-06-02 18:46:00,52.7,45.0,29.99,North,350,2.0,10.0,75,0.00,,---,0.01,VWS V14.01,2013-06-02 22:46:00,
2013-06-02 19:01:00,52.1,44.8,30.00,NE,54,1.0,10.0,76,0.00,,---,0.01,VWS V14.01,2013-06-02 23:01:00,
2013-06-02 19:16:00,51.4,43.8,30.00,NNW,346,3.0,10.0,75,0.00,,---,0.01,VWS V14.01,2013-06-02 23:16:00,
2013-06-02 19:31:00,50.9,43.3,30.01,NW,304,6.0,8.0,75,0.00,,---,0.01,VWS V14.01,2013-06-02 23:31:00,
2013-06-02 19:46:00,50.6,43.0,30.01,NW,304,5.0,12.0,75,0.00,,---,0.01,VWS V14.01,2013-06-02 23:46:00,
2013-06-02 20:01:00,50.9,43.6,30.01,WNW,283,2.0,8.0,76,0.00,,---,0.01,VWS V14.01,2013-06-03 00:01:00,
2013-06-02 20:16:00,51.2,42.5,30.01,WNW,285,8.0,9.0,72,0.00,,---,0.01,VWS V14.01,2013-06-03 00:16:00,
2013-06-02 20:31:00,50.5,41.8,30.01,NW,315,1.0,11.0,72,0.00,,---,0.01,VWS V14.01,2013-06-03 00:31:00,
2013-06-02 20:46:00,49.5,41.2,30.01,West,273,6.0,10.0,73,0.00,,---,0.01,VWS V14.01,2013-06-03 00:46:00,
2013-06-02 21:01:00,48.5,41.3,30.01,WNW,301,2.0,8.0,76,0.00,,---,0.01,VWS V14.01,2013-06-03 01:01:00,
2013-06-02 21:16:00,47.8,41.3,30.01,WNW,303,2.0,9.0,78,0.00,,---,0.01,VWS V14.01,2013-06-03 01:16:00,
2013-06-02 21:31:00,47.1,41.3,30.01,WNW,294,2.0,7.0,80,0.00,,---,0.01,VWS V14.01,2013-06-03 01:31:00,
2013-06-02 21:46:00,46.5,41.3,30.00,WNW,293,2.0,6.0,82,0.00,,---,0.01,VWS V14.01,2013-06-03 01:46:00,
2013-06-02 22:01:00,46.0,41.1,30.01,WNW,293,2.0,4.0,83,0.00,,---,0.01,VWS V14.01,2013-06-03 02:01:00,
2013-06-02 22:16:00,45.8,41.2,30.01,WNW,296,0.0,6.0,84,0.00,,---,0.01,VWS V14.01,2013-06-03 02:16:00,
2013-06-02 22:46:00,45.4,41.5,30.02,ENE,67,1.0,5.0,86,0.00,,---,0.01,VWS V14.01,2013-06-03 02:46:00,
2013-06-02 23:01:00,45.3,41.4,30.03,North,5,0.0,5.0,86,0.00,,---,0.01,VWS V14.01,2013-06-03 03:01:00,
2013-06-02 23:31:00,44.7,41.4,30.03,North,5,0.0,2.0,88,0.00,,---,0.01,VWS V14.01,2013-06-03 03:31:00,
2013-06-02 23:46:00,44.3,41.0,30.03,North,5,0.0,0.0,88,0.00,,---,0.01,VWS V14.01,2013-06-03 03:46:00,